Regional Weather Roundup
Issued by NWS Northern Indiana

Home | Current Version | Previous Version | Text Only | Print | Product List | Glossary Off
Versions: 1 2 3 4 5 6 7 8 9 10 11 12 13 14 15 16 17 18 19 20 21 22 23 24 25 26 27 28 29 30 31 32 33 34 35 36 37 38 39 40 41 42 43 44 45 46 47 48 49 50

000
ASUS43 KIWX 210500
RWRIWX

KIWX WEATHER ROUNDUP
NATIONAL WEATHER SERVICE NORTHERN INDIANA
1200 AM EST TUE FEB 21 2017

NOTE: "FAIR" INDICATES FEW OR NO CLOUDS BELOW 12,000 FEET WITH NO
SIGNIFICANT WEATHER AND/OR OBSTRUCTIONS TO VISIBILITY.

* THESE STATIONS ARE NOT UNDER NWS QUALITY CONTROL. THEY ALSO MAY NOT
  REPORT WEATHER SUCH AS PRECIPITATION OR FOG.

INZ001>027-210600-
NORTHERN INDIANA

CITY           SKY/WX    TMP DP  RH WIND       PRES   REMARKS
GARY*          CLOUDY    60  45  56 SE10G17   29.93F
MICHIGAN CITY* MOCLDY    55  45  67 S9G17     29.96S
KNOX*          CLOUDY    54  27  35 SE13      29.96F
SOUTH BEND     MOCLDY    55  42  61 SE18      29.99F
GOSHEN         CLOUDY    49  38  65 SE13      30.00F
WARSAW*        CLOUDY    52  41  66 SE8       30.00F
ANGOLA*        CLEAR     43  36  75 SE7       30.05F
FORT WAYNE     CLOUDY    47  41  80 E7        30.03F
PERU/GRISSOM   CLOUDY    52  47  84 SE8       29.98F

$$
INZ028>050-210600-
CENTRAL INDIANA

CITY           SKY/WX    TMP DP  RH WIND       PRES   REMARKS
LAFAYETTE      CLOUDY    57  48  72 SE10G20   29.96F
KOKOMO*        CLOUDY    53  46  77 SE9       30.01F
MUNCIE*        CLOUDY    57  40  52 SE8       30.02F
INDIANAPOLIS   CLOUDY    56  47  71 SE13      30.01F

$$
MIZ043>046-050>051-056>058-064>065-071>073-077>080-210600-
SOUTHWEST LOWER MICHIGAN

CITY           SKY/WX    TMP DP  RH WIND       PRES   REMARKS
BATTLE CREEK   CLOUDY    45  34  65 SE10      30.01F
BENTON HARBOR  CLOUDY    53  40  61 SE10      29.96F
COLDWATER*     CLOUDY    42  33  71 SE9       30.03F
HILLSDALE*     CLOUDY    37  32  81 SE9       30.04F
HOLLAND        CLOUDY    52  37  56 SE14      29.97F
GRAND RAPIDS   CLOUDY    47  33  58 SE8       29.99F
KALAMAZOO      MOCLDY    47  34  60 SE10G20   30.00F
STURGIS*       MOCLDY    45  36  70 SE14G21   30.00F
THREE RIVERS*  FAIR      48  36  64 SE10      30.00F

$$
OHZ001>008-015>018-024>025-210600-
NORTHWEST OHIO

CITY           SKY/WX    TMP DP  RH WIND       PRES   REMARKS
DEFIANCE       CLOUDY    38  33  82 E5        30.08F
FINDLAY        MOCLDY    45  35  68 CALM      30.07F
TOLEDO EXPRESS CLOUDY    37  33  85 E6        30.08F
TOLEDO METCALF CLOUDY    38  33  82 NE3       30.10F
LIMA           CLOUDY    48  40  73 SE8       30.07F

$$
AND FOR LAKE MICHIGAN COASTAL AND OPEN LAKE BUOY OBSERVATIONS

STATION/POSITION TEMP    WIND        PRES    VSBY  WAVE
                 AIR SEA DIR/SP/G                  HT/PER
                 (F)     (DEG/KT/KT) (MB)    (MI)  (FT/S)
CALUMET HARBOR    60     160/ 12/ 18 1012.8F
MICHIGAN CITY     57     130/ 16/ 19   N/A
BURNS HARBOR      59     170/ 15/ 26 1014.2F

$$
&&



USA.gov is the U.S. government's official web portal to all federal, state and local government web resources and services.